Data for 04/20/2017

Time Sea-Level Adjusted Pressure Absolute Pressure Temperature Relative Humidity Dew Point   
(mb) (inHg) (mb) (inHg) (C) (F) (%) (C) (F)
00:05 1022 30.18 851 25.13 4 39.2 40 -8.3 17
00:10 1021 30.15 851 25.13 4.3 39.7 39 -8.5 16.7
00:15 1021 30.15 851 25.13 4.3 39.8 40 -8.2 17.2
00:20 1021 30.15 851 25.13 4.3 39.8 39 -8.5 16.7
00:25 1021 30.15 851 25.13 4.4 39.9 39 -8.5 16.7
00:30 1021 30.15 851 25.13 4.3 39.8 39 -8.4 16.9
00:35 1021 30.15 851 25.13 4.6 40.2 38 -8.6 16.5
00:40 1021 30.15 851 25.13 4.4 39.9 37 -8.9 15.9
00:45 1021 30.15 851 25.13 4.5 40.2 37 -8.8 16.1
00:50 1021 30.15 850 25.1 4.6 40.2 37 -9 15.8
00:55 1021 30.15 850 25.1 4.6 40.3 38 -8.7 16.4
01:00 1021 30.15 850 25.1 4.4 39.9 38 -8.7 16.4
01:05 1021 30.15 850 25.1 4.3 39.8 38 -8.7 16.3
01:10 1021 30.15 850 25.1 4.3 39.8 39 -8.5 16.6
01:15 1021 30.15 850 25.1 4.3 39.7 39 -8.6 16.4
01:20 1021 30.15 850 25.1 4.1 39.3 40 -8.3 17.1
01:25 1021 30.15 850 25.1 4 39.2 40 -8.3 17
01:30 1021 30.15 850 25.1 4 39.2 41 -8.2 17.2
01:35 1021 30.15 850 25.1 4 39.3 39 -8.6 16.5
01:40 1021 30.15 850 25.1 4.1 39.3 40 -8.4 16.9
01:45 1021 30.15 850 25.1 4 39.1 41 -8 17.6
01:50 1021 30.15 850 25.1 3.9 39.1 41 -8.2 17.3
01:55 1021 30.15 850 25.1 4 39.2 39 -8.8 16.2
02:00 1021 30.15 850 25.1 4.2 39.6 39 -8.5 16.8
02:05 1021 30.15 850 25.1 4.1 39.4 41 -8 17.6
02:10 1021 30.15 850 25.1 3.7 38.7 43 -7.9 17.8
02:15 1021 30.15 850 25.1 3.8 38.8 41 -8.4 16.9
02:20 1021 30.15 850 25.1 3.9 39 41 -8.3 17.1
02:25 1021 30.15 850 25.1 4.2 39.5 38 -8.9 16.1
02:30 1021 30.15 850 25.1 4.1 39.4 42 -7.6 18.2
02:35 1021 30.15 850 25.1 3.7 38.7 42 -8.1 17.3
02:40 1021 30.15 850 25.1 3.8 38.9 42 -7.9 17.9
02:45 1021 30.15 850 25.1 3.7 38.6 43 -7.9 17.9
02:50 1021 30.15 850 25.1 3.6 38.5 42 -8.1 17.3
02:55 1021 30.15 850 25.1 3.8 38.8 42 -8 17.6
03:00 1021 30.15 850 25.1 4 39.2 41 -8.2 17.2
03:05 1021 30.15 850 25.1 4.1 39.3 41 -8.2 17.3
03:10 1021 30.15 850 25.1 4 39.2 41 -8.1 17.3
03:15 1021 30.15 850 25.1 4.1 39.4 40 -8.3 17.1
03:20 1021 30.15 850 25.1 4.2 39.5 40 -8.3 17.1
03:25 1021 30.15 850 25.1 4.1 39.4 41 -7.9 17.7
03:30 1021 30.15 850 25.1 3.7 38.7 43 -7.7 18.2
03:35 1021 30.15 850 25.1 3.5 38.3 44 -7.6 18.3
03:40 1021 30.15 850 25.1 3.2 37.8 46 -7.4 18.7
03:45 1021 30.15 850 25.1 3.1 37.6 45 -7.6 18.4
03:50 1021 30.15 850 25.1 3.3 38 44 -7.7 18.1
03:55 1021 30.15 850 25.1 3.5 38.2 44 -7.7 18.1
04:00 1020 30.12 850 25.1 3.6 38.5 44 -7.6 18.4
04:05 1020 30.12 850 25.1 3.5 38.3 43 -7.9 17.8
04:10 1020 30.12 850 25.1 3.6 38.5 44 -7.4 18.7
04:15 1020 30.12 850 25.1 3.4 38.2 44 -7.5 18.4
04:20 1020 30.12 850 25.1 3.5 38.2 45 -7.4 18.7
04:25 1020 30.12 850 25.1 3.3 38 46 -7.1 19.2
04:30 1020 30.12 849 25.07 3.2 37.7 47 -7.2 19
04:35 1020 30.12 849 25.07 3.3 38 46 -7.3 18.9
04:40 1020 30.12 849 25.07 3.5 38.3 44 -7.6 18.3
04:45 1020 30.12 849 25.07 3.7 38.7 44 -7.3 18.8
04:50 1020 30.12 849 25.07 3.4 38.1 47 -7 19.4
04:55 1020 30.12 849 25.07 3.2 37.8 48 -6.8 19.7
05:00 1020 30.12 849 25.07 3.3 37.9 46 -7.1 19.1
05:05 1020 30.12 849 25.07 3.4 38.1 47 -7 19.4
05:10 1020 30.12 849 25.07 3.5 38.3 44 -7.5 18.5
05:15 1020 30.12 849 25.07 3.8 38.8 44 -7.2 19
05:20 1020 30.12 849 25.07 4 39.2 43 -7.4 18.7
05:25 1020 30.12 849 25.07 4 39.1 45 -7.1 19.3
05:30 1020 30.12 849 25.07 4 39.2 44 -7.1 19.3
05:35 1020 30.12 849 25.07 3.9 39 45 -7 19.3
05:40 1020 30.12 849 25.07 4.2 39.6 44 -7.1 19.2
05:45 1020 30.12 849 25.07 4.2 39.6 44 -6.8 19.7
05:50 1020 30.12 849 25.07 4 39.3 45 -6.8 19.7
05:55 1020 30.12 849 25.07 4.1 39.4 45 -6.9 19.6
06:00 1020 30.12 849 25.07 4.2 39.6 43 -7.2 19.1
06:05 1020 30.12 849 25.07 4.6 40.2 42 -7.1 19.1
06:10 1020 30.12 849 25.07 4.8 40.6 42 -7.2 19
06:15 1020 30.12 849 25.07 4.9 40.9 42 -7.1 19.2
06:20 1020 30.12 849 25.07 5.1 41.1 42 -6.9 19.6
06:25 1020 30.12 849 25.07 5.2 41.3 41 -6.9 19.6
06:30 1020 30.12 849 25.07 5.2 41.4 41 -6.9 19.6
06:35 1020 30.12 849 25.07 5.4 41.6 41 -7 19.4
06:40 1020 30.12 849 25.07 5.6 42 40 -6.9 19.5
06:45 1020 30.12 849 25.07 5.7 42.3 41 -6.6 20
06:50 1020 30.12 849 25.07 5.8 42.5 41 -6.4 20.5
06:55 1020 30.12 849 25.07 5.9 42.6 41 -6.2 20.8
07:00 1020 30.12 849 25.07 6.1 43 40 -6.5 20.3
07:05 1020 30.12 849 25.07 6.3 43.3 40 -6.2 20.8
07:10 1020 30.12 849 25.07 6.4 43.6 40 -6.2 20.9
07:15 1019 30.09 849 25.07 6.7 44 39 -6.4 20.5
07:20 1019 30.09 849 25.07 6.8 44.3 39 -6.3 20.7
07:25 1019 30.09 849 25.07 6.9 44.4 39 -6.1 21
07:30 1019 30.09 849 25.07 7.1 44.7 39 -6 21.3
07:35 1019 30.09 849 25.07 7.4 45.3 38 -5.9 21.4
07:40 1019 30.09 849 25.07 7.5 45.6 39 -5.5 22.2
07:45 1019 30.09 849 25.07 7.6 45.7 37 -6.3 20.6
07:50 1019 30.09 848 25.04 7.9 46.3 36 -6.4 20.6
07:55 1019 30.09 848 25.04 8.4 47.2 34 -6.6 20
08:00 1019 30.09 848 25.04 8.7 47.7 33 -6.6 20.2
08:05 1019 30.09 848 25.04 9.1 48.3 33 -6.5 20.3
08:10 1019 30.09 848 25.04 9.5 49.1 31 -6.8 19.7
08:15 1019 30.09 848 25.04 9.4 48.9 31 -6.8 19.7
08:20 1019 30.09 848 25.04 9.6 49.3 31 -6.8 19.8
08:25 1019 30.09 848 25.04 9.7 49.5 31 -6.7 19.9
08:30 1019 30.09 848 25.04 10 50 30 -6.6 20.1
08:35 1019 30.09 848 25.04 10.2 50.4 30 -6.3 20.6
08:40 1019 30.09 848 25.04 10.3 50.6 31 -6.1 21.1
08:45 1019 30.09 848 25.04 10.5 50.8 29 -6.6 20
08:50 1019 30.09 848 25.04 10.3 50.5 29 -7 19.5
08:55 1019 30.09 848 25.04 10.5 50.9 29 -6.8 19.7
09:00 1019 30.09 848 25.04 10.9 51.6 29 -6.6 20.1
09:05 1019 30.09 848 25.04 11.1 51.9 28 -6.9 19.6
09:10 1019 30.09 848 25.04 11.2 52.1 25 -8 17.6
09:15 1019 30.09 848 25.04 11.5 52.6 25 -7.9 17.7
09:20 1019 30.09 848 25.04 11.8 53.2 25 -7.6 18.4
09:25 1019 30.09 848 25.04 11.8 53.2 25 -7.4 18.7
09:30 1018 30.06 848 25.04 12 53.5 24 -8 17.6
09:35 1018 30.06 848 25.04 12.3 54.1 24 -7.9 17.7
09:40 1018 30.06 848 25.04 12.4 54.4 23 -7.9 17.7
09:45 1018 30.06 848 25.04 12.3 54.1 23 -8.5 16.8
09:50 1018 30.06 848 25.04 12.6 54.7 21 -8.9 16.1
09:55 1018 30.06 848 25.04 13 55.5 21 -8.8 16.1
10:00 1018 30.06 847 25.01 13.2 55.8 20 -9.3 15.3
10:05 1018 30.06 847 25.01 12.8 55.1 21 -8.9 16
10:10 1018 30.06 847 25.01 13.3 55.9 21 -8.3 17.1
10:15 1018 30.06 847 25.01 13.6 56.4 20 -8.8 16.1
10:20 1018 30.06 847 25.01 13.7 56.7 20 -9.1 15.6
10:25 1018 30.06 847 25.01 13.2 55.7 21 -8.6 16.5
10:30 1018 30.06 847 25.01 13.4 56 20 -9.2 15.5
10:35 1018 30.06 847 25.01 13.7 56.7 20 -8.9 16
10:40 1018 30.06 847 25.01 14.1 57.4 19 -9 15.8
10:45 1018 30.06 847 25.01 13.3 55.9 20 -8.9 15.9
10:50 1018 30.06 847 25.01 13.3 56 20 -9 15.7
10:55 1018 30.06 847 25.01 13.5 56.3 21 -8.5 16.7
11:00 1018 30.06 847 25.01 14.1 57.5 19 -9.1 15.7
11:05 1018 30.06 847 25.01 14.4 58 19 -9.2 15.5
11:10 1018 30.06 847 25.01 14.6 58.2 19 -8.7 16.3
11:15 1017 30.03 847 25.01 14.7 58.4 18 -9.4 15
11:20 1017 30.03 847 25.01 14.8 58.7 18 -9.4 15.1
11:25 1017 30.03 846 24.98 15.2 59.4 17 -9.7 14.6
11:30 1017 30.03 846 24.98 16.3 61.4 15 -10.3 13.5
11:35 1017 30.03 846 24.98 15.9 60.5 17 -9.1 15.7
11:40 1017 30.03 846 24.98 15.5 59.9 17 -9.6 14.7
11:45 1017 30.03 846 24.98 14.3 57.7 19 -9.3 15.3
11:50 1017 30.03 846 24.98 14.4 58 18 -9.3 15.3
11:55 1017 30.03 846 24.98 14.6 58.2 18 -9.5 14.9
12:00 1017 30.03 846 24.98 14.9 58.8 18 -9 15.8
12:05 1017 30.03 846 24.98 14.9 58.9 19 -8.2 17.2
12:10 1016 30 846 24.98 14.2 57.6 20 -8.4 16.9
12:15 1016 30 846 24.98 14 57.2 20 -8.8 16.2
12:20 1016 30 846 24.98 13.8 56.9 19 -9.5 15
12:25 1016 30 846 24.98 14.3 57.8 19 -9 15.7
12:30 1016 30 846 24.98 14.3 57.7 20 -8.6 16.6
12:35 1016 30 846 24.98 13.7 56.7 21 -8.3 17.1
12:40 1016 30 846 24.98 14 57.1 21 -8 17.6
12:45 1016 30 846 24.98 13 55.4 24 -7.3 18.9
12:50 1016 30 845 24.95 12.8 55 24 -7.2 19.1
12:55 1016 30 846 24.98 12.9 55.3 24 -7.1 19.2
13:00 1016 30 846 24.98 13.1 55.6 25 -6.2 20.8
13:05 1016 30 846 24.98 13 55.4 23 -7.4 18.7
13:10 1016 30 845 24.95 13.2 55.7 22 -8 17.6
13:15 1016 30 845 24.95 13.4 56 23 -7.5 18.5
13:20 1016 30 845 24.95 13.9 57 22 -7.3 18.9
13:25 1016 30 845 24.95 14.6 58.3 21 -7.2 19.1
13:30 1016 30 845 24.95 14.3 57.7 23 -6.6 20.1
13:35 1016 30 845 24.95 13.8 56.8 21 -8 17.7
13:40 1016 30 845 24.95 13.5 56.2 22 -7.9 17.9
13:45 1016 30 845 24.95 13.6 56.4 23 -7.1 19.2
13:50 1016 30 845 24.95 13.9 57 24 -6.2 20.8
13:55 1016 30 845 24.95 13.1 55.6 27 -5.5 22
14:00 1016 30 846 24.98 12.7 54.8 27 -5.7 21.8
14:05 1017 30.03 846 24.98 11.9 53.4 31 -4.6 23.7
14:10 1017 30.03 846 24.98 11.6 52.8 32 -4.6 23.8
14:15 1017 30.03 846 24.98 11.5 52.6 33 -4.4 24.1
14:20 1017 30.03 846 24.98 11.4 52.5 33 -4.3 24.2
14:25 1017 30.03 846 24.98 11.2 52.2 35 -3.7 25.3
14:30 1017 30.03 846 24.98 11.5 52.6 35 -3.4 25.9
14:35 1017 30.03 846 24.98 11.6 52.9 35 -3.3 26.1
14:40 1017 30.03 846 24.98 11.4 52.6 36 -3.2 26.2
14:45 1017 30.03 846 24.98 11.7 53.1 33 -4 24.7
14:50 1017 30.03 846 24.98 11.9 53.4 34 -3.5 25.6
14:55 1017 30.03 846 24.98 12.2 53.9 33 -3.5 25.8
15:00 1017 30.03 846 24.98 12.5 54.5 31 -4.1 24.6
15:05 1017 30.03 846 24.98 12.3 54.2 30 -4.8 23.4
15:10 1017 30.03 846 24.98 11.9 53.3 31 -4.7 23.5
15:15 1017 30.03 846 24.98 11.8 53.2 30 -5.1 22.8
15:20 1017 30.03 846 24.98 12.1 53.7 30 -4.8 23.4
15:25 1017 30.03 846 24.98 12.1 53.8 31 -4.5 23.9
15:30 1017 30.03 846 24.98 12.3 54.1 31 -4.5 23.9
15:35 1017 30.03 846 24.98 12.5 54.5 32 -3.7 25.3
15:40 1017 30.03 846 24.98 12.4 54.3 31 -4 24.7
15:45 1017 30.03 846 24.98 12.4 54.3 33 -3.2 26.3
15:50 1017 30.03 846 24.98 12.2 53.9 34 -3.3 26.1
15:55 1017 30.03 846 24.98 12 53.6 34 -3.3 26
16:00 1017 30.03 846 24.98 11.9 53.5 34 -3.3 26.1
16:05 1017 30.03 846 24.98 12 53.6 34 -3.2 26.2
16:10 1017 30.03 846 24.98 12 53.6 34 -3.3 26.1
16:15 1017 30.03 846 24.98 11.6 53 34 -3.7 25.3
16:20 1017 30.03 846 24.98 11.7 53 34 -3.4 25.8
16:25 1017 30.03 846 24.98 11.9 53.5 33 -3.9 25
16:30 1017 30.03 846 24.98 11.9 53.4 33 -3.9 24.9
16:35 1017 30.03 846 24.98 11.6 52.9 33 -3.9 24.9
16:40 1017 30.03 846 24.98 11.5 52.6 33 -4 24.7
16:45 1017 30.03 846 24.98 11.4 52.5 34 -3.8 25.2
16:50 1017 30.03 846 24.98 11.4 52.4 33 -4.3 24.3
16:55 1017 30.03 846 24.98 11.5 52.8 33 -4 24.8
17:00 1017 30.03 846 24.98 11.4 52.5 36 -3.3 26.1
17:05 1017 30.03 846 24.98 11.2 52.2 37 -3 26.7
17:10 1017 30.03 846 24.98 10.9 51.6 37 -3.1 26.4
17:15 1017 30.03 846 24.98 10.8 51.4 39 -2.6 27.3
17:20 1017 30.03 846 24.98 10.3 50.6 40 -2.6 27.2
17:25 1017 30.03 846 24.98 10.2 50.3 41 -2.6 27.3
17:30 1017 30.03 846 24.98 10.1 50.1 43 -2 28.4
17:35 1017 30.03 846 24.98 9.8 49.7 43 -2.1 28.2
17:40 1017 30.03 846 24.98 9.8 49.6 44 -2 28.5
17:45 1017 30.03 846 24.98 9.7 49.5 45 -1.7 28.9
17:50 1017 30.03 846 24.98 9.6 49.3 45 -1.6 29.2
17:55 1017 30.03 846 24.98 9.5 49.1 46 -1.5 29.3
18:00 1017 30.03 846 24.98 9.3 48.8 47 -1.3 29.6
18:05 1017 30.03 846 24.98 9.2 48.5 48 -1.3 29.6
18:10 1017 30.03 846 24.98 9.2 48.6 47 -1.3 29.6
18:15 1017 30.03 846 24.98 9.2 48.5 49 -1.1 30.1
18:20 1017 30.03 846 24.98 9.1 48.3 50 -0.8 30.5
18:25 1017 30.03 846 24.98 9.1 48.3 48 -1.2 29.8
18:30 1017 30.03 846 24.98 9 48.1 50 -0.8 30.6
18:35 1017 30.03 846 24.98 8.8 47.8 53 -0.3 31.4
18:40 1017 30.03 846 24.98 8.7 47.7 52 -0.4 31.2
18:45 1017 30.03 846 24.98 8.6 47.4 53 -0.3 31.4
18:50 1017 30.03 846 24.98 8.3 46.9 57 0.3 32.6
18:55 1017 30.03 846 24.98 8.1 46.6 57 0.3 32.5
19:00 1017 30.03 846 24.98 7.9 46.2 59 0.4 32.7
19:05 1017 30.03 846 24.98 7.8 46 59 0.4 32.7
19:10 1017 30.03 846 24.98 7.9 46.2 59 0.5 32.8
19:15 1017 30.03 846 24.98 7.8 46.1 60 0.6 33.1
19:20 1017 30.03 847 25.01 7.8 46 62 0.9 33.6
19:25 1017 30.03 847 25.01 7.8 46 63 1.1 34
19:30 1018 30.06 847 25.01 7.6 45.6 65 1.5 34.6
19:35 1018 30.06 847 25.01 7.3 45.1 68 1.7 35.1
19:40 1018 30.06 847 25.01 7 44.6 69 1.8 35.3
19:45 1018 30.06 847 25.01 6.8 44.2 72 2.1 35.8
19:50 1018 30.06 847 25.01 6.6 43.8 74 2.2 35.9
19:55 1018 30.06 847 25.01 6.5 43.7 73 2.1 35.7
20:00 1018 30.06 847 25.01 6.4 43.5 74 2.2 35.9
20:05 1018 30.06 847 25.01 6.3 43.4 73 1.9 35.5
20:10 1018 30.06 847 25.01 6.2 43.2 74 2 35.6
20:15 1018 30.06 848 25.04 5.9 42.6 77 2.2 36
20:20 1019 30.09 848 25.04 5.7 42.3 78 2.2 36
20:25 1019 30.09 848 25.04 5.1 41.2 80 1.9 35.5
20:30 1019 30.09 848 25.04 4.5 40.2 83 1.9 35.4
20:35 1019 30.09 848 25.04 4.2 39.6 84 1.9 35.3
20:40 1019 30.09 848 25.04 4.2 39.6 85 1.9 35.5
20:45 1019 30.09 848 25.04 4.2 39.5 86 2 35.6
20:50 1019 30.09 848 25.04 4.1 39.4 86 2 35.5
20:55 1019 30.09 849 25.07 4.2 39.5 86 1.9 35.5
21:00 1019 30.09 849 25.07 4.2 39.5 85 1.9 35.4
21:05 1020 30.12 849 25.07 4.1 39.5 85 1.9 35.4
21:10 1020 30.12 849 25.07 4.1 39.4 85 1.9 35.4
21:15 1020 30.12 849 25.07 4.2 39.5 85 1.9 35.4
21:20 1020 30.12 849 25.07 4.2 39.5 85 1.8 35.3
21:25 1020 30.12 849 25.07 4.1 39.3 85 1.8 35.3
21:30 1020 30.12 849 25.07 4.1 39.4 86 1.9 35.4
21:35 1020 30.12 849 25.07 4.1 39.4 85 1.9 35.4
21:40 1020 30.12 849 25.07 3.9 39.1 86 1.8 35.2
21:45 1020 30.12 849 25.07 3.9 38.9 87 1.9 35.5
21:50 1020 30.12 849 25.07 3.6 38.5 87 1.6 34.9
21:55 1020 30.12 849 25.07 3.1 37.7 88 1.3 34.4
22:00 1020 30.12 849 25.07 2.8 37 88 1 33.8
22:05 1020 30.12 850 25.1 2.6 36.7 89 1 33.8
22:10 1020 30.12 850 25.1 2.6 36.7 89 1 33.8
22:15 1020 30.12 850 25.1 2.7 36.9 89 1.1 34
22:20 1021 30.15 850 25.1 2.8 37.1 88 1.1 33.9
22:25 1021 30.15 850 25.1 2.7 36.8 87 0.8 33.5
22:30 1021 30.15 850 25.1 2.6 36.7 88 0.8 33.4
22:35 1021 30.15 850 25.1 2.5 36.5 88 0.7 33.3
22:40 1021 30.15 850 25.1 2.7 36.8 88 0.9 33.5
22:45 1021 30.15 850 25.1 2.7 36.8 86 0.6 33.1
22:50 1021 30.15 850 25.1 2.6 36.7 86 0.5 33
22:55 1021 30.15 850 25.1 2.6 36.8 86 0.5 32.9
23:00 1021 30.15 850 25.1 2.5 36.6 85 0.3 32.6
23:05 1021 30.15 850 25.1 2.4 36.4 87 0.5 32.9
23:10 1021 30.15 850 25.1 2.4 36.3 86 0.3 32.6
23:15 1021 30.15 850 25.1 2.2 35.9 87 0.2 32.3
23:20 1021 30.15 850 25.1 2 35.6 88 0.2 32.3
23:25 1021 30.15 850 25.1 1.9 35.4 87 -0 32
23:30 1021 30.15 850 25.1 1.7 35.1 88 -0.1 31.9
23:35 1021 30.15 850 25.1 1.6 34.9 88 -0.2 31.6
23:40 1021 30.15 850 25.1 1.5 34.7 88 -0.3 31.5
23:45 1021 30.15 850 25.1 1.4 34.4 89 -0.3 31.4
23:50 1021 30.15 850 25.1 1.2 34.2 89 -0.3 31.4
23:55 1021 30.15 850 25.1 1.2 34.2 90 -0.3 31.5
24:00 1021 30.15 850 25.1 1.2 34.2 90 -0.3 31.5